Weather History for Bentonville, AR

Change the Weather History Date:

Monday, March 4, 2013

  Actual Average Record
Temperature  
Mean Temperature 54 °F -  
Max Temperature 64 °F 56 °F 79 °F (1961)
Min Temperature 44 °F 31 °F 6 °F (1960)
Degree Days  
Heating Degree Days 11    
Growing Degree Days 4 (Base 50)    
Moisture  
Dew Point 37 °F    
Average Humidity 55    
Maximum Humidity 81    
Minimum Humidity 42    
Precipitation  
Precipitation 0.00 in - - ()
Sea Level Pressure  
Sea Level Pressure 29.68 in    
Wind  
Wind Speed 10 mph (SSE)    
Max Wind Speed 21 mph    
Max Gust Speed 28 mph    
Visibility 10 miles    
Events      
Averages and records for this station are not official NWS values.
T = Trace of Precipitation, MM = Missing Value Source: NWS Daily Summary

Daily Weather History Graph

Daily Weather History Graph

Search for Another Location

Airport:

Trip Planner

Search our weather history database for the weather conditions in past years. The results will help you decide how hot, cold, wet, or windy it might be!

Date:

Astronomy

Mar. 04, 2013 Rise Set
Actual Time 6:42 AM CST 6:14 PM CST
Civil Twilight 6:17 AM CST 6:40 PM CST
Nautical Twilight 5:47 AM CST 7:10 PM CST
Astronomical Twilight 5:17 AM CST 7:40 PM CST
Moon 12:46 AM CST (3/4) 11:04 AM CST (3/4)
Length of Visible Light 12h 23m
Length of Day
11h 31m
Waning Gibbous, 52% of the Moon is Illuminated
Mar 4
Waning Gibbous
Mar 4
Last Quarter
Mar 11
New
Mar 19
First Quarter
Mar 27
Full

Hourly Weather History & Observations

Time (CST) Temp. Windchill Dew Point Humidity Pressure Visibility Wind Dir Wind Speed Gust Speed Precip Events Conditions
12:15 AM 44.6 °F 39.2 °F 28.4 °F 53% 29.75 in 10.0 mi SE 10.4 mph - N/A   Clear
12:35 AM 44.6 °F 39.2 °F 28.4 °F 53% 29.74 in 10.0 mi SE 10.4 mph - N/A   Clear
12:55 AM 44.6 °F 39.2 °F 28.4 °F 53% 29.74 in 10.0 mi SE 10.4 mph - N/A   Clear
1:35 AM 44.6 °F 39.2 °F 28.4 °F 53% 29.72 in 10.0 mi SE 10.4 mph - N/A   Clear
1:55 AM 44.6 °F 39.2 °F 28.4 °F 53% 29.71 in 10.0 mi SE 10.4 mph - N/A   Clear
2:15 AM 44.6 °F 39.2 °F 28.4 °F 53% 29.70 in 10.0 mi SE 10.4 mph - N/A   Clear
2:55 AM 46.4 °F 41.5 °F 28.4 °F 50% 29.67 in 10.0 mi SE 10.4 mph - N/A   Clear
3:15 AM 46.4 °F 41.5 °F 28.4 °F 50% 29.67 in 10.0 mi SE 10.4 mph - N/A   Clear
3:35 AM 46.4 °F 41.5 °F 30.2 °F 53% 29.66 in 10.0 mi SE 10.4 mph - N/A   Clear
3:55 AM 46.4 °F 41.9 °F 30.2 °F 53% 29.66 in 10.0 mi SE 9.2 mph - N/A   Clear
4:15 AM 46.4 °F 41.9 °F 30.2 °F 53% 29.67 in 10.0 mi SE 9.2 mph - N/A   Clear
4:35 AM 44.6 °F 40.2 °F 30.2 °F 57% 29.67 in 10.0 mi SE 8.1 mph - N/A   Clear
4:55 AM 44.6 °F 41.4 °F 30.2 °F 57% 29.67 in 10.0 mi SE 5.8 mph - N/A   Clear
5:15 AM 46.4 °F 41.9 °F 32.0 °F 57% 29.66 in 10.0 mi SSE 9.2 mph - N/A   Clear
5:35 AM 46.4 °F 42.4 °F 32.0 °F 57% 29.66 in 10.0 mi SE 8.1 mph - N/A   Clear
5:55 AM 46.4 °F 41.9 °F 32.0 °F 57% 29.65 in 10.0 mi SSE 9.2 mph - N/A   Clear
6:15 AM 50.0 °F - 33.8 °F 54% 29.65 in 10.0 mi SSE 12.7 mph 17.3 mph N/A   Clear
6:35 AM 50.0 °F - 33.8 °F 54% 29.65 in 10.0 mi SSE 10.4 mph - N/A   Clear
6:55 AM 48.2 °F - 33.8 °F 58% 29.65 in 10.0 mi SSE 12.7 mph - N/A   Clear
7:15 AM 48.2 °F - 33.8 °F 58% 29.65 in 10.0 mi SSE 11.5 mph - N/A   Clear
7:35 AM 48.2 °F - 33.8 °F 58% 29.65 in 10.0 mi SSE 11.5 mph - N/A   Clear
7:55 AM 50.0 °F - 33.8 °F 54% 29.66 in 10.0 mi SSE 10.4 mph - N/A   Clear
8:15 AM 50.0 °F - 33.8 °F 54% 29.66 in 10.0 mi SE 6.9 mph - N/A   Clear
8:35 AM 51.8 °F - 35.6 °F 54% 29.67 in 10.0 mi SE 6.9 mph - N/A   Clear
8:55 AM 53.6 °F - 35.6 °F 51% 29.67 in 10.0 mi South 10.4 mph - N/A   Clear
9:15 AM 55.4 °F - 37.4 °F 51% 29.67 in 10.0 mi South 11.5 mph - N/A   Clear
9:35 AM 55.4 °F - 37.4 °F 51% 29.67 in 10.0 mi South 12.7 mph - N/A   Clear
9:55 AM 57.2 °F - 37.4 °F 48% 29.66 in 10.0 mi South 13.8 mph 19.6 mph N/A   Clear
10:15 AM 57.2 °F - 37.4 °F 48% 29.66 in 10.0 mi South 15.0 mph 24.2 mph N/A   Clear
10:35 AM 59.0 °F - 39.2 °F 48% 29.65 in 10.0 mi South 15.0 mph 19.6 mph N/A   Clear
10:55 AM 60.8 °F - 39.2 °F 45% 29.65 in 10.0 mi South 16.1 mph 19.6 mph N/A   Clear
11:15 AM 60.8 °F - 39.2 °F 45% 29.65 in 10.0 mi South 10.4 mph 21.9 mph N/A   Clear
11:35 AM 60.8 °F - 39.2 °F 45% 29.64 in 10.0 mi South 12.7 mph 19.6 mph N/A   Clear
11:55 AM 62.6 °F - 39.2 °F 42% 29.65 in 10.0 mi South 10.4 mph - N/A   Clear
12:15 PM 62.6 °F - 39.2 °F 42% 29.64 in 10.0 mi SSW 11.5 mph 18.4 mph N/A   Clear
12:55 PM 62.6 °F - 41.0 °F 45% 29.61 in 10.0 mi South 10.4 mph 20.7 mph N/A   Clear
1:15 PM 62.6 °F - 42.8 °F 48% 29.61 in 10.0 mi South 10.4 mph 19.6 mph N/A   Clear
1:35 PM 64.4 °F - 42.8 °F 45% 29.60 in 10.0 mi SSW 12.7 mph - N/A   Clear
1:55 PM 64.4 °F - 42.8 °F 45% 29.61 in 10.0 mi South 11.5 mph 18.4 mph N/A   Clear
2:15 PM 64.4 °F - 42.8 °F 45% 29.61 in 10.0 mi SSW 8.1 mph 16.1 mph N/A   Partly Cloudy
2:35 PM 64.4 °F - 42.8 °F 45% 29.61 in 10.0 mi SSW 6.9 mph 16.1 mph N/A   Mostly Cloudy
2:55 PM 64.4 °F - 42.8 °F 45% 29.61 in 10.0 mi SSW 8.1 mph 16.1 mph N/A   Mostly Cloudy
3:15 PM 62.6 °F - 42.8 °F 48% 29.62 in 10.0 mi South 11.5 mph - N/A   Mostly Cloudy
3:35 PM 62.6 °F - 42.8 °F 48% 29.63 in 10.0 mi SSW 4.6 mph - N/A   Overcast
3:55 PM 62.6 °F - 42.8 °F 48% 29.63 in 10.0 mi South 8.1 mph - N/A   Overcast
4:15 PM 62.6 °F - 42.8 °F 48% 29.64 in 10.0 mi South 10.4 mph - N/A   Overcast
4:35 PM 62.6 °F - 44.6 °F 52% 29.64 in 10.0 mi South 8.1 mph - N/A   Overcast
4:55 PM 62.6 °F - 42.8 °F 48% 29.64 in 10.0 mi South 6.9 mph - N/A   Overcast
5:15 PM 62.6 °F - 42.8 °F 48% 29.65 in 10.0 mi South 8.1 mph - N/A   Overcast
5:35 PM 62.6 °F - 44.6 °F 52% 29.65 in 10.0 mi SSE 6.9 mph - N/A   Overcast
5:55 PM 59.0 °F - 42.8 °F 55% 29.66 in 10.0 mi SSE 4.6 mph - N/A   Scattered Clouds
6:15 PM 57.2 °F - 42.8 °F 59% 29.67 in 10.0 mi SSE 3.5 mph - N/A   Clear
6:35 PM 57.2 °F - 42.8 °F 59% 29.67 in 10.0 mi SE 3.5 mph - N/A   Clear
6:55 PM 57.2 °F - 42.8 °F 59% 29.68 in 10.0 mi SE 3.5 mph - N/A   Clear
7:15 PM 55.4 °F - 42.8 °F 63% 29.68 in 10.0 mi ESE 3.5 mph - N/A   Clear
7:35 PM 55.4 °F - 42.8 °F 63% 29.69 in 10.0 mi SE 3.5 mph - N/A   Clear
7:55 PM 53.6 °F - 42.8 °F 67% 29.69 in 10.0 mi ESE 3.5 mph - N/A   Clear
8:15 PM 53.6 °F - 42.8 °F 67% 29.69 in 10.0 mi SE 6.9 mph - N/A   Clear
8:35 PM 51.8 °F - 42.8 °F 71% 29.70 in 10.0 mi SE 6.9 mph - N/A   Clear
8:55 PM 50.0 °F - 42.8 °F 76% 29.70 in 10.0 mi SE 5.8 mph - N/A   Clear
9:15 PM 50.0 °F - 42.8 °F 76% 29.71 in 10.0 mi Calm Calm - N/A   Clear
9:35 PM 46.4 °F - 41.0 °F 81% 29.72 in 10.0 mi Calm Calm - N/A   Clear
9:55 PM 46.4 °F 42.4 °F 41.0 °F 81% 29.74 in 10.0 mi NW 8.1 mph - N/A   Clear
10:15 PM 51.8 °F - 42.8 °F 71% 29.76 in 10.0 mi NNW 12.7 mph 19.6 mph N/A   Clear
10:35 PM 50.0 °F - 39.2 °F 66% 29.77 in 10.0 mi North 16.1 mph 24.2 mph N/A   Clear
10:55 PM 48.2 °F - 35.6 °F 62% 29.79 in 10.0 mi North 12.7 mph - N/A   Clear
11:15 PM 46.4 °F 38.7 °F 33.8 °F 62% 29.80 in 10.0 mi North 20.7 mph 27.6 mph N/A   Clear
11:35 PM 44.6 °F 38.1 °F 32.0 °F 61% 29.82 in 10.0 mi North 13.8 mph 27.6 mph N/A   Clear
11:55 PM 44.6 °F 38.8 °F 32.0 °F 61% 29.84 in 10.0 mi NNW 11.5 mph 21.9 mph N/A   Clear